Location: Kuffner-Sternwarte
(48.2130°N, 16.2960°E)
Time: 08:14:28
(UTC+02:00)

COROT - Pass Details

Date: 16 January 2018
Orbit: 602 x 887 km, 90.0° (Epoch: 16 July)

Event Time Altitude Azimuth Distance (km) Brightness Sun altitude
Rises 05:50:08 0° 354° (N) 2,868 8.8 -17.8°
Enters shadow 05:51:38 - 349° (N) 2,270 8.2 -17.5°
Exits shadow 05:53:47 19° 335° (NNW) 1,482 7.2 -17.2°
Maximum altitude 05:56:19 36° 280° (W) 983 6.0 -16.8°
Drops below altitude 10° 06:00:17 10° 214° (SW) 1,994 8.0 -16.1°
Sets 06:02:39 0° 206° (SSW) 2,927 8.9 -15.8°
